• In Belarus
  • List of Countries
  • For 7 days
  • Water Temperature
  • Weather Map
  • Weather Widgets
  • user-avatar
    Login

    Hourly Weather Sopron

    Today, 27 February, Thursday

    Time Temperature Precipitation Wind Pressure Humidity
    00:00 +1°C° 0 mm 6 mps 736 mmHg 67%
    01:00 +1°C° 0 mm 6 mps 737 mmHg 68%
    02:00 +1°C° 0 mm 6 mps 737 mmHg 69%
    03:00 0°C° 0 mm 5 mps 737 mmHg 69%
    04:00 0°C° 0 mm 5 mps 737 mmHg 70%
    05:00 -1°C° 0 mm 6 mps 738 mmHg 70%
    06:00 -1°C° 0 mm 6 mps 738 mmHg 69%
    07:00 0°C° 0 mm 5 mps 739 mmHg 69%
    08:00 +1°C° 0 mm 5 mps 739 mmHg 64%
    09:00 +3°C° 0 mm 5 mps 739 mmHg 58%
    10:00 +4°C° 0 mm 6 mps 739 mmHg 53%
    11:00 +5°C° 0 mm 5 mps 739 mmHg 50%
    12:00 +6°C° 0 mm 5 mps 739 mmHg 47%
    13:00 +6°C° 0 mm 4 mps 739 mmHg 43%
    14:00 +6°C° 0 mm 4 mps 738 mmHg 44%
    15:00 +6°C° 0 mm 4 mps 737 mmHg 45%
    16:00 +6°C° 0 mm 5 mps 736 mmHg 46%
    17:00 +6°C° 0 mm 5 mps 735 mmHg 49%
    18:00 +4°C° 0 mm 6 mps 735 mmHg 52%
    19:00 +3°C° 0 mm 7 mps 734 mmHg 55%
    20:00 +3°C° 0 mm 7 mps 733 mmHg 54%
    21:00 +2°C° 0 mm 8 mps 732 mmHg 53%
    22:00 +2°C° 0 mm 8 mps 731 mmHg 52%
    23:00 +3°C° 0 mm 7 mps 731 mmHg 53%

    Tomorrow, 28 February, Friday

    Time Temperature Precipitation Wind Pressure Humidity
    00:00 +3°C° 0 mm 6 mps 731 mmHg 55%
    01:00 +2°C° 0 mm 5 mps 731 mmHg 57%
    02:00 +2°C° 0.1 mm 5 mps 731 mmHg 61%
    03:00 +2°C° 0.1 mm 5 mps 731 mmHg 66%
    04:00 +1°C° 0.1 mm 5 mps 731 mmHg 70%
    05:00 0°C° 0.7 mm 7 mps 733 mmHg 73%
    06:00 0°C° 0.7 mm 9 mps 734 mmHg 76%
    07:00 -1°C° 0.7 mm 11 mps 736 mmHg 78%
    08:00 -1°C° 0.1 mm 11 mps 737 mmHg 74%
    09:00 +1°C° 0.1 mm 11 mps 739 mmHg 69%
    10:00 +2°C° 0.1 mm 11 mps 740 mmHg 64%
    11:00 +2°C° 0.1 mm 11 mps 741 mmHg 61%
    12:00 +3°C° 0.1 mm 11 mps 742 mmHg 58%
    13:00 +3°C° 0.1 mm 10 mps 743 mmHg 55%
    14:00 +3°C° 0.1 mm 10 mps 744 mmHg 57%
    15:00 +3°C° 0.1 mm 9 mps 744 mmHg 59%
    16:00 +2°C° 0.1 mm 9 mps 745 mmHg 62%
    17:00 +1°C° 0 mm 8 mps 746 mmHg 63%
    18:00 +2°C° 0 mm 6 mps 746 mmHg 65%
    19:00 +1°C° 0 mm 5 mps 747 mmHg 66%
    20:00 0°C° 0 mm 4 mps 747 mmHg 68%
    21:00 +1°C° 0 mm 3 mps 748 mmHg 71%
    22:00 0°C° 0 mm 3 mps 748 mmHg 73%
    23:00 +1°C° 0 mm 2 mps 748 mmHg 73%

    Day after tomorrow, 29 February, Saturday

    Time Temperature Precipitation Wind Pressure Humidity
    00:00 +1°C° 0 mm 2 mps 748 mmHg 72%
    01:00 +2°C° 0 mm 1 mps 747 mmHg 72%
    02:00 +1°C° 0 mm 2 mps 747 mmHg 72%
    03:00 0°C° 0 mm 3 mps 746 mmHg 71%
    04:00 -1°C° 0 mm 4 mps 746 mmHg 71%
    05:00 -1°C° 0 mm 4 mps 745 mmHg 69%
    06:00 -1°C° 0 mm 5 mps 745 mmHg 67%
    07:00 0°C° 0 mm 5 mps 744 mmHg 65%
    08:00 +1°C° 0 mm 6 mps 744 mmHg 60%
    09:00 +2°C° 0 mm 6 mps 743 mmHg 56%
    10:00 +3°C° 0 mm 6 mps 742 mmHg 51%
    11:00 +4°C° 0 mm 7 mps 742 mmHg 50%
    12:00 +5°C° 0 mm 7 mps 741 mmHg 48%
    13:00 +6°C° 0 mm 7 mps 740 mmHg 46%
    14:00 +6°C° 0 mm 7 mps 739 mmHg 47%
    15:00 +6°C° 0 mm 7 mps 739 mmHg 48%
    16:00 +6°C° 0 mm 7 mps 738 mmHg 49%
    17:00 +6°C° 0 mm 7 mps 737 mmHg 52%
    18:00 +5°C° 0 mm 7 mps 737 mmHg 55%
    19:00 +5°C° 0 mm 7 mps 737 mmHg 58%
    20:00 +4°C° 0 mm 6 mps 737 mmHg 60%
    21:00 +3°C° 0 mm 5 mps 737 mmHg 62%
    22:00 +4°C° 0 mm 3 mps 737 mmHg 65%
    23:00 +3°C° 0 mm 3 mps 737 mmHg 64%

    1 March, Sunday

    Time Temperature Precipitation Wind Pressure Humidity
    00:00 +3°C° 0 mm 3 mps 737 mmHg 64%
    01:00 +4°C° 0 mm 2 mps 737 mmHg 64%
    02:00 +4°C° 0.2 mm 2 mps 737 mmHg 67%
    03:00 +4°C° 0.2 mm 2 mps 738 mmHg 70%
    04:00 +5°C° 0.2 mm 2 mps 738 mmHg 74%
    05:00 +5°C° 0.4 mm 2 mps 739 mmHg 78%
    06:00 +5°C° 0.4 mm 2 mps 739 mmHg 82%
    07:00 +6°C° 0.4 mm 1 mps 739 mmHg 87%
    08:00 +6°C° 0.5 mm 1 mps 740 mmHg 87%
    09:00 +6°C° 0.5 mm 1 mps 740 mmHg 88%
    10:00 +7°C° 0.5 mm 1 mps 740 mmHg 89%
    11:00 +7°C° 0.2 mm 1 mps 740 mmHg 88%
    12:00 +7°C° 0.2 mm 1 mps 740 mmHg 87%
    13:00 +7°C° 0.2 mm 1 mps 740 mmHg 87%
    14:00 +7°C° 0.9 mm 1 mps 739 mmHg 89%
    15:00 +7°C° 0.9 mm 1 mps 738 mmHg 92%
    16:00 +5°C° 0.9 mm 2 mps 738 mmHg 95%
    17:00 +5°C° 0.5 mm 2 mps 738 mmHg 95%
    18:00 +5°C° 0.5 mm 2 mps 738 mmHg 96%
    19:00 +5°C° 0.5 mm 2 mps 737 mmHg 96%
    20:00 +5°C° 0.2 mm 2 mps 737 mmHg 97%
    21:00 +6°C° 0.2 mm 2 mps 736 mmHg 97%
    22:00 +6°C° 0.2 mm 2 mps 736 mmHg 97%
    23:00 +6°C° 0.6 mm 2 mps 735 mmHg 97%

    2 March, Monday

    Time Temperature Precipitation Wind Pressure Humidity
    00:00 +6°C° 0.6 mm 2 mps 734 mmHg 97%
    01:00 +7°C° 0.6 mm 2 mps 733 mmHg 97%
    02:00 +7°C° 0.1 mm 2 mps 733 mmHg 97%
    03:00 +7°C° 0.1 mm 3 mps 732 mmHg 96%
    04:00 +7°C° 0.1 mm 3 mps 732 mmHg 95%
    05:00 +5°C° 0.4 mm 4 mps 732 mmHg 91%
    06:00 +5°C° 0.4 mm 4 mps 732 mmHg 87%
    07:00 +5°C° 0.4 mm 5 mps 732 mmHg 82%
    08:00 +6°C° 0 mm 5 mps 733 mmHg 76%
    09:00 +7°C° 0 mm 6 mps 733 mmHg 69%
    10:00 +8°C° 0 mm 6 mps 733 mmHg 63%
    11:00 +8°C° 0 mm 5 mps 734 mmHg 59%
    12:00 +10°C° 0 mm 4 mps 734 mmHg 56%
    13:00 +11°C° 0 mm 3 mps 734 mmHg 52%
    14:00 +11°C° 0 mm 3 mps 734 mmHg 52%
    15:00 +12°C° 0 mm 2 mps 733 mmHg 53%
    16:00 +13°C° 0 mm 2 mps 733 mmHg 53%
    17:00 +10°C° 0 mm 3 mps 733 mmHg 62%
    18:00 +9°C° 0 mm 3 mps 733 mmHg 71%
    19:00 +7°C° 0 mm 4 mps 733 mmHg 80%
    20:00 +7°C° 0 mm 4 mps 733 mmHg 81%
    21:00 +7°C° 0 mm 4 mps 733 mmHg 82%
    22:00 +7°C° 0 mm 4 mps 733 mmHg 83%
    23:00 +6°C° 0 mm 4 mps 733 mmHg 82%

    3 March, Tuesday

    Time Temperature Precipitation Wind Pressure Humidity
    00:00 +7°C° 0 mm 3 mps 734 mmHg 82%
    01:00 +7°C° 0 mm 3 mps 734 mmHg 82%
    02:00 +6°C° 0.3 mm 4 mps 734 mmHg 80%
    03:00 +5°C° 0.3 mm 5 mps 733 mmHg 78%
    04:00 +4°C° 0.3 mm 6 mps 733 mmHg 76%
    05:00 +4°C° 1.2 mm 6 mps 734 mmHg 78%
    06:00 +3°C° 1.2 mm 7 mps 734 mmHg 80%
    07:00 +3°C° 1.2 mm 7 mps 735 mmHg 83%
    08:00 +2°C° 0.4 mm 8 mps 735 mmHg 80%
    09:00 +2°C° 0.4 mm 9 mps 736 mmHg 78%
    10:00 +2°C° 0.4 mm 9 mps 736 mmHg 76%
    11:00 +3°C° 0.1 mm 9 mps 736 mmHg 73%
    12:00 +3°C° 0.1 mm 9 mps 737 mmHg 71%
    13:00 +5°C° 0.1 mm 9 mps 737 mmHg 69%
    14:00 +5°C° 0 mm 9 mps 737 mmHg 67%
    15:00 +5°C° 0 mm 9 mps 737 mmHg 65%
    16:00 +6°C° 0 mm 8 mps 737 mmHg 63%
    17:00 +5°C° 0 mm 7 mps 738 mmHg 66%
    18:00 +4°C° 0 mm 7 mps 738 mmHg 70%
    19:00 +3°C° 0 mm 6 mps 738 mmHg 74%
    20:00 +3°C° 0 mm 5 mps 739 mmHg 73%
    21:00 +3°C° 0 mm 5 mps 739 mmHg 73%
    22:00 +2°C° 0 mm 5 mps 740 mmHg 72%
    23:00 +2°C° 0 mm 5 mps 740 mmHg 72%
    Show more